Time,TemperatureF,DewpointF,PressureIn,WindDirection,WindDirectionDegrees,WindSpeedMPH,WindSpeedGustMPH,Humidity,HourlyPrecipIn,Conditions,Clouds,dailyrainin,SoftwareType,DateUTC
2013-02-26 00:12:00,39.3,36.0,30.21,West,277,0.0,-999.0,89,-99.99,,,0.00,weatherlink.com 1.10,2013-02-26 08:12:00,
2013-02-26 00:27:00,38.9,36.0,30.20,West,277,0.0,-999.0,89,-99.99,,,0.00,weatherlink.com 1.10,2013-02-26 08:27:00,
2013-02-26 00:42:00,38.8,36.0,30.20,West,277,0.0,-999.0,89,-99.99,,,0.00,weatherlink.com 1.10,2013-02-26 08:42:00,
2013-02-26 00:57:00,40.3,36.0,30.20,West,277,0.0,-999.0,84,-99.99,,,0.00,weatherlink.com 1.10,2013-02-26 08:57:00,
2013-02-26 01:12:00,41.1,35.0,30.20,West,277,0.0,-999.0,79,-99.99,,,0.00,weatherlink.com 1.10,2013-02-26 09:12:00,
2013-02-26 01:27:00,41.5,35.0,30.20,NNE,15,6.0,-999.0,77,-99.99,,,0.00,weatherlink.com 1.10,2013-02-26 09:27:00,
2013-02-26 01:42:00,42.8,35.0,30.20,North,10,1.0,-999.0,74,-99.99,,,0.00,weatherlink.com 1.10,2013-02-26 09:42:00,
2013-02-26 01:57:00,42.6,35.0,30.20,NNW,344,0.0,-999.0,74,-99.99,,,0.00,weatherlink.com 1.10,2013-02-26 09:57:00,
2013-02-26 02:12:00,42.6,35.0,30.20,NNW,348,0.0,-999.0,74,-99.99,,,0.00,weatherlink.com 1.10,2013-02-26 10:12:00,
2013-02-26 02:27:00,42.5,35.0,30.19,North,355,0.0,-999.0,74,-99.99,,,0.00,weatherlink.com 1.10,2013-02-26 10:27:00,
2013-02-26 02:42:00,42.5,34.0,30.19,NNW,333,4.0,-999.0,73,-99.99,,,0.00,weatherlink.com 1.10,2013-02-26 10:42:00,
2013-02-26 02:57:00,42.5,34.0,30.19,NNW,338,0.0,-999.0,73,-99.99,,,0.00,weatherlink.com 1.10,2013-02-26 10:57:00,
2013-02-26 03:12:00,42.5,35.0,30.19,NNW,330,2.0,-999.0,76,-99.99,,,0.00,weatherlink.com 1.10,2013-02-26 11:12:00,
2013-02-26 03:27:00,42.2,34.0,30.19,North,5,0.0,-999.0,72,-99.99,,,0.00,weatherlink.com 1.10,2013-02-26 11:27:00,
2013-02-26 03:42:00,42.2,34.0,30.18,North,9,2.0,-999.0,72,-99.99,,,0.00,weatherlink.com 1.10,2013-02-26 11:42:00,
2013-02-26 03:57:00,42.2,33.0,30.18,NNW,342,0.0,-999.0,71,-99.99,,,0.00,weatherlink.com 1.10,2013-02-26 11:57:00,
2013-02-26 04:12:00,42.1,34.0,30.19,NNW,327,0.0,-999.0,72,-99.99,,,0.00,weatherlink.com 1.10,2013-02-26 12:12:00,
2013-02-26 04:27:00,41.6,33.0,30.18,NW,321,0.0,-999.0,72,-99.99,,,0.00,weatherlink.com 1.10,2013-02-26 12:27:00,
2013-02-26 04:42:00,41.2,33.0,30.19,NW,321,0.0,-999.0,72,-99.99,,,0.00,weatherlink.com 1.10,2013-02-26 12:42:00,
2013-02-26 04:57:00,41.1,33.0,30.18,NW,321,0.0,-999.0,73,-99.99,,,0.00,weatherlink.com 1.10,2013-02-26 12:57:00,
2013-02-26 05:12:00,40.4,33.0,30.19,NNW,341,2.0,-999.0,74,-99.99,,,0.00,weatherlink.com 1.10,2013-02-26 13:12:00,
2013-02-26 05:27:00,41.0,33.0,30.19,NNW,341,0.0,-999.0,73,-99.99,,,0.00,weatherlink.com 1.10,2013-02-26 13:27:00,
2013-02-26 05:42:00,41.1,33.0,30.19,NNW,335,3.0,-999.0,73,-99.99,,,0.00,weatherlink.com 1.10,2013-02-26 13:42:00,
2013-02-26 05:57:00,40.6,33.0,30.19,NNW,331,0.0,-999.0,73,-99.99,,,0.00,weatherlink.com 1.10,2013-02-26 13:57:00,
2013-02-26 06:12:00,39.1,32.0,30.19,NNW,332,1.0,-999.0,76,-99.99,,,0.00,weatherlink.com 1.10,2013-02-26 14:12:00,
2013-02-26 06:27:00,36.8,31.0,30.19,NW,318,3.0,-999.0,79,-99.99,,,0.00,weatherlink.com 1.10,2013-02-26 14:27:00,
2013-02-26 06:42:00,36.9,31.0,30.19,NW,318,3.0,-999.0,80,-99.99,,,0.00,weatherlink.com 1.10,2013-02-26 14:42:00,
2013-02-26 06:57:00,37.0,32.0,30.20,NNW,339,3.0,-999.0,81,-99.99,,,0.00,weatherlink.com 1.10,2013-02-26 14:57:00,
2013-02-26 07:12:00,38.4,32.0,30.20,NW,325,4.0,-999.0,78,-99.99,,,0.00,weatherlink.com 1.10,2013-02-26 15:12:00,
2013-02-26 07:27:00,38.7,32.0,30.21,NW,304,0.0,-999.0,77,-99.99,,,0.00,weatherlink.com 1.10,2013-02-26 15:27:00,
2013-02-26 07:42:00,38.5,33.0,30.21,WNW,302,4.0,-999.0,79,-99.99,,,0.00,weatherlink.com 1.10,2013-02-26 15:42:00,
2013-02-26 07:57:00,39.2,33.0,30.21,NNW,337,9.0,-999.0,79,-99.99,,,0.00,weatherlink.com 1.10,2013-02-26 15:57:00,
2013-02-26 08:12:00,41.2,34.0,30.21,NE,47,0.0,-999.0,75,-99.99,,,0.00,weatherlink.com 1.10,2013-02-26 16:12:00,
2013-02-26 08:27:00,42.8,34.0,30.21,WNW,298,1.0,-999.0,72,-99.99,,,0.00,weatherlink.com 1.10,2013-02-26 16:27:00,
2013-02-26 08:42:00,43.7,36.0,30.21,WNW,302,0.0,-999.0,74,-99.99,,,0.00,weatherlink.com 1.10,2013-02-26 16:42:00,
2013-02-26 08:57:00,45.5,37.0,30.22,NW,317,0.0,-999.0,71,-99.99,,,0.00,weatherlink.com 1.10,2013-02-26 16:57:00,
2013-02-26 09:12:00,46.7,36.0,30.22,WNW,294,1.0,-999.0,67,-99.99,,,0.00,weatherlink.com 1.10,2013-02-26 17:12:00,
2013-02-26 09:27:00,48.8,35.0,30.22,NW,313,4.0,-999.0,60,-99.99,,,0.00,weatherlink.com 1.10,2013-02-26 17:27:00,
2013-02-26 09:42:00,49.8,36.0,30.22,NNW,342,4.0,-999.0,59,-99.99,,,0.00,weatherlink.com 1.10,2013-02-26 17:42:00,
2013-02-26 09:57:00,51.0,36.0,30.22,NW,316,3.0,-999.0,58,-99.99,,,0.00,weatherlink.com 1.10,2013-02-26 17:57:00,
2013-02-26 10:12:00,53.4,35.0,30.21,NNW,327,7.0,-999.0,50,-99.99,,,0.00,weatherlink.com 1.10,2013-02-26 18:12:00,
2013-02-26 10:27:00,54.4,36.0,30.21,NNW,344,9.0,-999.0,50,-99.99,,,0.00,weatherlink.com 1.10,2013-02-26 18:27:00,
2013-02-26 10:42:00,55.6,33.0,30.20,NW,317,10.0,-999.0,42,-99.99,,,0.00,weatherlink.com 1.10,2013-02-26 18:42:00,
2013-02-26 10:57:00,56.8,33.0,30.19,NW,316,3.0,-999.0,40,-99.99,,,0.00,weatherlink.com 1.10,2013-02-26 18:57:00,
2013-02-26 11:12:00,58.6,32.0,30.19,NNW,333,0.0,-999.0,36,-99.99,,,0.00,weatherlink.com 1.10,2013-02-26 19:12:00,
2013-02-26 11:27:00,59.8,31.0,30.19,NW,319,3.0,-999.0,34,-99.99,,,0.00,weatherlink.com 1.10,2013-02-26 19:27:00,
2013-02-26 11:42:00,60.9,29.0,30.19,NW,320,2.0,-999.0,30,-99.99,,,0.00,weatherlink.com 1.10,2013-02-26 19:42:00,
2013-02-26 11:57:00,62.2,29.0,30.18,NNW,331,2.0,-999.0,29,-99.99,,,0.00,weatherlink.com 1.10,2013-02-26 19:57:00,
2013-02-26 12:12:00,62.9,31.0,30.18,West,272,1.0,-999.0,30,-99.99,,,0.00,weatherlink.com 1.10,2013-02-26 20:12:00,
2013-02-26 12:27:00,63.9,32.0,30.18,West,277,2.0,-999.0,30,-99.99,,,0.00,weatherlink.com 1.10,2013-02-26 20:27:00,
2013-02-26 12:42:00,64.8,33.0,30.17,NW,311,2.0,-999.0,30,-99.99,,,0.00,weatherlink.com 1.10,2013-02-26 20:42:00,
2013-02-26 12:57:00,65.3,30.0,30.16,West,281,3.0,-999.0,27,-99.99,,,0.00,weatherlink.com 1.10,2013-02-26 20:57:00,
2013-02-26 13:12:00,66.1,31.0,30.16,West,261,3.0,-999.0,27,-99.99,,,0.00,weatherlink.com 1.10,2013-02-26 21:12:00,
2013-02-26 13:27:00,67.1,33.0,30.15,West,267,1.0,-999.0,28,-99.99,,,0.00,weatherlink.com 1.10,2013-02-26 21:27:00,
2013-02-26 13:42:00,67.9,31.0,30.14,WNW,292,4.0,-999.0,25,-99.99,,,0.00,weatherlink.com 1.10,2013-02-26 21:42:00,
2013-02-26 13:57:00,69.0,33.0,30.14,West,265,4.0,-999.0,26,-99.99,,,0.00,weatherlink.com 1.10,2013-02-26 21:57:00,
2013-02-26 14:12:00,68.5,38.0,30.14,South,190,3.0,-999.0,33,-99.99,,,0.00,weatherlink.com 1.10,2013-02-26 22:12:00,
2013-02-26 14:27:00,68.6,37.0,30.13,SSW,193,3.0,-999.0,32,-99.99,,,0.00,weatherlink.com 1.10,2013-02-26 22:27:00,
2013-02-26 14:43:00,68.4,40.0,30.13,SSW,196,7.0,-999.0,35,-99.99,,,0.00,weatherlink.com 1.10,2013-02-26 22:43:00,
2013-02-26 14:58:00,68.7,41.0,30.12,SSW,209,4.0,-999.0,36,-99.99,,,0.00,weatherlink.com 1.10,2013-02-26 22:58:00,
2013-02-26 15:13:00,68.5,41.0,30.12,South,178,7.0,-999.0,37,-99.99,,,0.00,weatherlink.com 1.10,2013-02-26 23:13:00,
2013-02-26 15:28:00,67.6,41.0,30.13,SSW,196,0.0,-999.0,38,-99.99,,,0.00,weatherlink.com 1.10,2013-02-26 23:28:00,
2013-02-26 15:43:00,67.1,37.0,30.13,SSW,195,4.0,-999.0,33,-99.99,,,0.00,weatherlink.com 1.10,2013-02-26 23:43:00,
2013-02-26 15:58:00,66.0,38.0,30.13,South,178,7.0,-999.0,36,-99.99,,,0.00,weatherlink.com 1.10,2013-02-26 23:58:00,
2013-02-26 16:13:00,65.7,39.0,30.13,SSW,202,1.0,-999.0,38,-99.99,,,0.00,weatherlink.com 1.10,2013-02-27 00:13:00,
2013-02-26 16:28:00,65.4,38.0,30.13,South,182,0.0,-999.0,36,-99.99,,,0.00,weatherlink.com 1.10,2013-02-27 00:28:00,
2013-02-26 16:43:00,65.1,40.0,30.13,SE,130,3.0,-999.0,40,-99.99,,,0.00,weatherlink.com 1.10,2013-02-27 00:43:00,
2013-02-26 16:58:00,62.0,40.0,30.13,SE,140,0.0,-999.0,44,-99.99,,,0.00,weatherlink.com 1.10,2013-02-27 00:58:00,
2013-02-26 17:13:00,59.7,41.0,30.14,SE,130,0.0,-999.0,50,-99.99,,,0.00,weatherlink.com 1.10,2013-02-27 01:13:00,
2013-02-26 17:28:00,57.8,40.0,30.14,ESE,117,2.0,-999.0,51,-99.99,,,0.00,weatherlink.com 1.10,2013-02-27 01:28:00,
2013-02-26 17:43:00,56.4,40.0,30.14,SSE,148,0.0,-999.0,54,-99.99,,,0.00,weatherlink.com 1.10,2013-02-27 01:43:00,
2013-02-26 17:58:00,55.0,40.0,30.14,SSE,148,0.0,-999.0,57,-99.99,,,0.00,weatherlink.com 1.10,2013-02-27 01:58:00,
2013-02-26 18:13:00,53.5,40.0,30.15,South,176,0.0,-999.0,61,-99.99,,,0.00,weatherlink.com 1.10,2013-02-27 02:13:00,
2013-02-26 18:28:00,51.9,41.0,30.15,SSE,159,0.0,-999.0,67,-99.99,,,0.00,weatherlink.com 1.10,2013-02-27 02:28:00,
2013-02-26 18:43:00,50.4,41.0,30.16,SE,134,0.0,-999.0,70,-99.99,,,0.00,weatherlink.com 1.10,2013-02-27 02:43:00,
2013-02-26 18:58:00,49.5,41.0,30.16,SE,134,0.0,-999.0,72,-99.99,,,0.00,weatherlink.com 1.10,2013-02-27 02:58:00,
2013-02-26 19:13:00,48.7,41.0,30.17,SE,134,0.0,-999.0,74,-99.99,,,0.00,weatherlink.com 1.10,2013-02-27 03:13:00,
2013-02-26 19:43:00,47.3,40.0,30.18,SE,134,0.0,-999.0,77,-99.99,,,0.00,weatherlink.com 1.10,2013-02-27 03:43:00,
2013-02-26 19:58:00,46.9,40.0,30.18,SW,234,0.0,-999.0,77,-99.99,,,0.00,weatherlink.com 1.10,2013-02-27 03:58:00,
2013-02-26 20:13:00,46.0,40.0,30.18,SW,234,0.0,-999.0,79,-99.99,,,0.00,weatherlink.com 1.10,2013-02-27 04:13:00,
2013-02-26 20:28:00,45.6,40.0,30.18,SW,234,0.0,-999.0,81,-99.99,,,0.00,weatherlink.com 1.10,2013-02-27 04:28:00,
2013-02-26 20:44:00,45.8,41.0,30.19,SW,234,0.0,-999.0,82,-99.99,,,0.00,weatherlink.com 1.10,2013-02-27 04:44:00,
2013-02-26 20:59:00,44.8,39.0,30.19,SW,234,0.0,-999.0,81,-99.99,,,0.00,weatherlink.com 1.10,2013-02-27 04:59:00,
2013-02-26 21:14:00,44.3,40.0,30.19,SW,234,0.0,-999.0,84,-99.99,,,0.00,weatherlink.com 1.10,2013-02-27 05:14:00,
2013-02-26 21:29:00,43.6,39.0,30.20,SW,234,0.0,-999.0,84,-99.99,,,0.00,weatherlink.com 1.10,2013-02-27 05:29:00,
2013-02-26 21:44:00,43.1,39.0,30.20,SW,234,0.0,-999.0,85,-99.99,,,0.00,weatherlink.com 1.10,2013-02-27 05:44:00,
2013-02-26 21:59:00,42.6,39.0,30.20,SW,234,0.0,-999.0,86,-99.99,,,0.00,weatherlink.com 1.10,2013-02-27 05:59:00,
2013-02-26 22:14:00,42.3,39.0,30.20,SW,234,0.0,-999.0,87,-99.99,,,0.00,weatherlink.com 1.10,2013-02-27 06:14:00,
2013-02-26 22:29:00,42.6,40.0,30.20,SW,234,0.0,-999.0,89,-99.99,,,0.00,weatherlink.com 1.10,2013-02-27 06:29:00,
2013-02-26 22:44:00,42.2,39.0,30.20,SW,234,0.0,-999.0,88,-99.99,,,0.00,weatherlink.com 1.10,2013-02-27 06:44:00,
2013-02-26 22:59:00,41.4,38.0,30.20,SW,234,0.0,-999.0,88,-99.99,,,0.00,weatherlink.com 1.10,2013-02-27 06:59:00,
2013-02-26 23:14:00,40.7,38.0,30.20,SW,234,0.0,-999.0,88,-99.99,,,0.00,weatherlink.com 1.10,2013-02-27 07:14:00,
2013-02-26 23:29:00,40.3,37.0,30.20,SW,234,0.0,-999.0,88,-99.99,,,0.00,weatherlink.com 1.10,2013-02-27 07:29:00,
2013-02-26 23:44:00,39.6,36.0,30.20,SW,234,0.0,-999.0,88,-99.99,,,0.00,weatherlink.com 1.10,2013-02-27 07:44:00,
2013-02-26 23:59:00,39.2,36.0,30.20,SW,234,0.0,-999.0,89,-99.99,,,0.00,weatherlink.com 1.10,2013-02-27 07:59:00,